World > North America > United States > California

San Diego, California Regional Weather

Lat: 32.72N, Lon: 117.16W
Wx Zone: CAZ043
Feedback

San Diego, CA Regional Weather

Expires:201910171200;;840224
ASUS46 KSGX 171111
RWRSGX

SAN DIEGO HOURLY WEATHER ROUNDUP
NATIONAL WEATHER SERVICE SAN DIEGO CA
400 AM PDT THU OCT 17 2019

NOTE: "FAIR" INDICATES FEW OR NO CLOUDS BELOW 12,000 FEET WITH NO 
SIGNIFICANT WEATHER AND/OR OBSTRUCTIONS TO VISIBILITY.


CAZ042-043-060-061-PZZ750-775-171200-

GREATER SAN DIEGO AREA
  
CITY           SKY/WX    TMP DP  RH WIND       PRES   REMARKS
SAN DIEGO AP   CLOUDY    67  63  87 CALM      29.81F                  
NATIONAL CITY    N/A    N/A N/A N/A S1        29.80F                  
CHULA VISTA      N/A     65  62  90 CALM      29.71F                  
BROWN FIELD    FOG       61  59  93 CALM      29.80S VSB 3/4          
MIRAMAR MCAS   CLOUDY    65  61  87 SE3       29.80F FOG              
MONTGOMERY FLD CLOUDY    64  60  87 SE5       29.80F FOG              
GILLESPIE FLD  FAIR      59  54  82 CALM      29.80S                  

$$

NORTH SAN DIEGO COUNTY
  
CITY           SKY/WX    TMP DP  RH WIND       PRES   REMARKS
CAMP PENDLETON CLOUDY    57  54  89 CALM      29.80S                  
OCEANSIDE AP   CLOUDY    63  58  83 CALM      29.80S                  
OCEANSIDE HBR    N/A     63  61  94 CALM      29.82S                  
VISTA            N/A     59  54  81 CALM      29.77S                  
CARLSBAD       CLOUDY    62  60  93 S3        29.80R FOG              
DEL MAR          N/A     62  61  96 SW1       29.81S                  
LA JOLLA SCRIP   N/A     63  60  90 CALM      29.80S                  
FALLBROOK      FOG       57  55  94 CALM      29.81S VSB 1/2          
ESCONDIDO        N/A     61  54  78 W1        29.79S                  
SAN MARCOS       N/A     59  56  89 CALM      29.82S                  
POWAY            N/A     56  50  81 CALM      29.81F                  

$$

EAST SAN DIEGO COUNTY
  
CITY           SKY/WX    TMP DP  RH WIND       PRES   REMARKS
RAMONA         CLEAR     51  35  54 CALM      29.82F                  
SANTEE LAKES     N/A     59  56  89 NW1       29.77F                  
LA MESA          N/A     61  60  94 CALM      29.74F                  
JAMUL            N/A     53  47  79 CALM      29.79F                  
DESCANSO N       N/A     52  34  51 NE7       29.73F                  
MT. LAGUNA OBS   N/A     51  30  44 SW15      29.71S                  
CAMPO            N/A     47  33  58 N3        29.84F                  

$$

ORANGE COUNTY AND THE LOS ANGELES BASIN
  
CITY           SKY/WX    TMP DP  RH WIND       PRES   REMARKS
JOHN WAYNE AP  MOCLDY    63  57  81 NE3       29.78F                  
LAGUNA BEACH     N/A     58  56  92 N2        29.78F                  
LAKE FOREST FR   N/A     61  39  44 CALM      29.65S                  
HUNTINGTON BCH   N/A     60  59  96 CALM      29.78F                  
LOS ALAMITOS   FAIR      60  60 100 MISG      29.79S                  
FULLERTON      MOCLDY    63  58  83 E3        29.77F                  
LONG BEACH     MOCLDY    64  59  83 CALM      29.79F                  
L.A. AP        MOCLDY    64  57  78 CALM      29.79F                  
L.A. DOWNTOWN  MOCLDY    65  58  78 CALM      29.79S                  

$$

THE INLAND EMPIRE
  
CITY           SKY/WX    TMP DP  RH WIND       PRES   REMARKS
CORONA         MOCLDY    56  54  93 CALM      29.80F                  
CHINO          MOCLDY    59  53  80 CALM      29.81F                  
ONTARIO        MOCLDY    63  51  65 VRB3      29.80F                  
SAN BERNARDINO FAIR      61  40  46 NE3       29.82R                  
RIVERSIDE AP   PTCLDY    61  48  62 CALM      29.80F                  
MORENO VALLEY    N/A     64  44  49 CALM      29.90S                  
MARCH ARB      PTCLDY    55  40  58 CALM      29.81F                  
HORSETHIEF CYN   N/A     60  38  43 W2        29.76F                  
PERRIS           N/A     60  45  56 CALM      29.84F                  
HEMET EAST       N/A     65  28  24 CALM      29.79S                  
FRENCH VALLEY  FAIR      57  36  44 CALM      29.82S                  
TEMECULA         N/A     60  49  66 CALM      29.81F                  

$$

SAN BERNARDINO AND RIVERSIDE COUNTY MOUNTAINS
  
CITY           SKY/WX    TMP DP  RH WIND       PRES   REMARKS
BIG BEAR AP    MOCLDY    45  28  53 SW3       30.00F                  
ANGELUS OAKS     N/A     52  33  49 CALM      29.70F                  

$$

SOUTHERN DESERT INCLUDING THE COACHELLA VALLEY
  
CITY           SKY/WX    TMP DP  RH WIND       PRES   REMARKS
PALM SPRINGS   CLEAR     73  41  31 W5        29.72F                  
THOUSAND PALMS   N/A     78  37  22 NE2       29.66F                  
PALM DESERT      N/A     67  48  50 CALM      26.41S                  
THERMAL        CLEAR     60  42  51 CALM      29.66F                  
BORREGO AP     PTSUNNY   63  32  31 CALM      29.73S                  
BLYTHE         CLEAR     67  29  24 NW5       29.70F                  
IMPERIAL AP    CLEAR     67  41  38 W5        29.68F                  
EL CENTRO NAS  CLEAR     69  35  28 W9        29.71S                  
YUMA AZ        PTCLDY    69  46  43 CALM      29.69F                  

$$

UPPER DESERT
  
CITY           SKY/WX    TMP DP  RH WIND       PRES   REMARKS
HESPERIA         N/A     65  37  35 W1        29.76F                  
APPLE VALLEY     N/A     61  41  48 NE5       29.81F                  
PALMDALE       MOCLDY    68  34  28 SW13      29.83F                  
LANCASTER      MOCLDY    65  34  31 SW12      29.82F                  
EDWARDS AFB    CLOUDY    63  31  30 SW9       29.79F                  
DAGGETT        MOCLDY    67  35  30 W12       29.79F                  
29 PALMS N     PTCLDY    64  32  30 W7        29.85F                  
NEEDLES        CLEAR     68  29  23 NW5       29.73S                  

$$

REGIONAL REPORTS
  
CITY           SKY/WX    TMP DP  RH WIND       PRES   REMARKS
SANTA BARBARA  PTCLDY    57  53  86 CALM      29.77F                  
SANDBERG       MOCLDY    60  31  33 NW13      29.93F                  
LAS VEGAS NV   MOCLDY    67  30  25 S3        29.75F                  
PHOENIX AZ     PTCLDY    75  38  26 E5        29.74F                  
TIJUANA        CLOUDY    61  61 100 CALM      29.83F FOG              
ENSENADA NW      N/A     63  32  31 CALM      29.77F                  

$$

OFFSHORE ISLANDS
  
CITY           SKY/WX    TMP DP  RH WIND       PRES   REMARKS
CATALINA ARPT  FOG       58  54  86 SW13      29.83F VSB 1            
SAN NICOLAS IS CLOUDY   N/A N/A N/A NW26G36   29.81F                  

$$

MARINE AND OFFSHORE BUOY REPORTS
  
STATION/POSITION SKY/WX   TEMP    WIND        PRES    VSBY  SWELL
                          AIR SEA DIR/SP/G                  HT/PER/DIR
                          (F)     (DEG/KT/KT) (MB)    (MI)  (FT/S/D)
TANNER BANKS               63 65  310/ 21/ 27 1010.3F         3/200/15
S CLEMENTE BASIN           65 69  270/ 10/ 12 1009.0F         3/270/ 7
SAN NICOLAS IS.               62                N/A           3/210/15
SO. S. ROSA ISLA           60 60  310/ 23/ 29 1010.5F         3/210/15
W. S. BARBARA CH                                N/A
M. S. BARBARA CH           63 63  360/  6/ 10 1008.9R         3/250/ 6
S. MONICA BASIN            64 66  290/  8/ 10 1008.9R         3/230/16
S PEDRO CHANNEL               67                N/A           2/200/15
OCEANSIDE OFFSHR              67                N/A           2/210/15
TORREY PINES OTR              66                N/A           2/210/15
SAN DIEGO BAY                 70              1008.8F
IMPERIAL BEACH                65                N/A           2/240/15
POINT LOMA SOUTH              68                N/A           2/190/15

$$

  

SKY/WX - Weather  TMP - Temperature  DP - Dew Point  RH - Relative Humidity
WIND - Wind Direction/Speed PRES - Barometric Pressure VSB - Visibility
WCI - Wind Chill Index E13G22 Wind - East Wind 13 mph/Gusts of 22 mph